loading
|

THOR ABLESTAR DEB, 1943

Orbit data source: Space-Track

THOR ABLESTAR DEB, 1943 is space debris in LEO originally from a launch on Thu, 29 Jun 1961 UTC launched from the Air Force Eastern Test Range (AFETR). Debris objects in space refer to the collection of defunct objects orbiting the Earth. Examples of debris include non-operational satellites, rocket bodies, and fragments generated from explosions, collisions, or faulty payload assembly.

Loading next visibility...
Loading greatness...
THOR ABLESTAR DEB details
Identifier
1943, 1961-015HT
Orbit
LEO
Last TLE update20 hours ago
Origin
Flag of USUSAF SSD (US)
ManufacturerUnknown
MissionSpacecraft
Bus & MotorUnknown bus, Unknown motor
MassUnknown
Launch date (UTC)
1961-06-29 (63 years ago)
Launch vehicleUnknown
Launch site
Air Force Eastern Test Range (AFETR)
Object type
Payload
Rocket body
Debris
Shape & HBRUnknown
Radar Cross SectionSmall (<0.1 m²)

Expand to show TLE details & history

TLE from 20 hours ago
0 THOR ABLESTAR DEB
1 01943U 61015HT  24284.19299974  .00005018  00000-0  21365-2 0  9993
2 01943  66.8589 323.7240 0049169  29.0192 331.3621 14.25262411256420
Epoch: 2024-10-10T04:37Z
Definitive object data (Epoch: 2024-10-10T04:37:55.177Z)
Latitude-0.00009°
Longitude-125.03701°
Altitude778.752 km
Speed7.481 km/s
True Right ascension21h 34m 53s
True Declination0° 00' 00"
Sunlit
Object was in full shadow at TLE epoch
Predictive object data (real-time)
Latitude-61.4951°
Longitude-178.69122°
Altitude836.969 km
Speed7.43 km/s
Apparent Right ascension08h 33m 54s
Apparent Declination-80° 42' 19"
Sunlit
Object is in daylight
Predictive observer data (real-time)
Local Sidereal Time18:50:05
Azimuth186.08° SSW
Elevation-48.127°
Doppler factor1
Orbital elements
Apogee841.294 km
Perigee770.647 km
Semi-major axis7,184.108 km
Eccentricity0.0049169
Inclination66.8589°
RAAN323.724°
Arg. of periapsis29.0192°
True anomaly331.0906°
Mean anomaly331.3621°
Eccentric anomaly331.2265°
Mean motion3.56438 °/min
BSTAR0.0021365
Period101 mins
No data available

THOR ABLESTAR DEB Visibility forecast

Observer location: 39.9160978°, -105.1181434

THOR ABLESTAR DEB is not visible in the next 10 days
Span
Click to sort rows by Start time (UTC) header in descending order
Start Az.
Max El. time (UTC)
Max El. Az.
Max El.
End time (UTC)
End Az.